Regional Weather Roundup
Issued by NWS

Home | Current Version | Previous Version | Text Only | Print | Product List | Glossary On
Versions: 1 2 3 4 5 6 7 8 9 10 11 12 13 14 15 16 17 18 19 20 21 22 23 24 25 26 27 28 29 30 31 32 33 34 35 36 37 38 39 40 41 42 43 44 45 46 47 48 49 50
000
ASUS43 KLOT 161806
RWRIL

ILLINOIS REGIONAL WEATHER ROUNDUP
NATIONAL WEATHER SERVICE CHICAGO/ROMEOVILLE IL
100 PM CDT WED APR 16 2014

NOTE: "FAIR" INDICATES FEW OR NO CLOUDS BELOW 12,000 FEET WITH NO
SIGNIFICANT WEATHER AND/OR OBSTRUCTIONS TO VISIBILITY.

* THESE STATIONS ARE NOT UNDER NWS QUALITY CONTROL. THEY ALSO MAY NOT
  REPORT WEATHER SUCH AS PRECIPITATION OR FOG.

ILZ001-002-007-009-015-016-024-161900-
NORTHWEST ILLINOIS

CITY           SKY/WX    TMP DP  RH WIND       PRES   REMARKS
MOLINE         FAIR      55  26  32 S23G32    30.08F
6HR MIN TEMP:  35; 6HR MAX TEMP:  55;

STERLING*      FAIR      52  30  43 SE17G25   30.14F
SAVANNA*       FAIR      53  28  37 SE28      30.10F
$$

ILZ003-004-008-010-011-017-018-161900-
NORTH CENTRAL ILLINOIS

CITY           SKY/WX    TMP DP  RH WIND       PRES   REMARKS
ROCKFORD       CLOUDY    49  28  44 S29G37    30.18F
6HR MIN TEMP:  30; 6HR MAX TEMP:  49;

FREEPORT*      FAIR      49  32  50 S28       30.15F
ROCHELLE*      FAIR      47  32  55 S26G32    30.17F
DE KALB*       SUNNY     45  30  55 S25G31    30.20F
$$

ILZ005-006-012>014-019>023-161900-
NORTHEAST ILLINOIS

CITY           SKY/WX    TMP DP  RH WIND       PRES   REMARKS
CHICAGO-OHARE  CLOUDY    48  25  40 S21G30    30.23F
6HR MIN TEMP:  31; 6HR MAX TEMP:  48;

CHICAGO-MIDWAY PTSUNNY   48  25  40 S16G29    30.25F
6HR MIN TEMP:  32; 6HR MAX TEMP:  48;

AURORA         PTSUNNY   48  28  46 S26G33    30.21F
6HR MIN TEMP:  30; 6HR MAX TEMP:  48;

LANSING*       SUNNY     46  26  44 SE17G28   30.27F
WAUKEGAN       CLOUDY    41  28  60 SE21G28   30.23F
6HR MIN TEMP:  31; 6HR MAX TEMP:  42;

DUPAGE AIRPORT MOSUNNY   49  27  42 S22G28    30.22F
6HR MIN TEMP:  30; 6HR MAX TEMP:  49;

WHEELING       PTSUNNY   48  27  44 SE17      30.24F
6HR MIN TEMP:  31; 6HR MAX TEMP:  48;

NORTHERLY ISL    N/A     44  30  58 SE21        N/A
$$

LMZ740>746-161900-
SOUTHERN LAKE MICHIGAN

STATION/POSITION SKY/WX   TEMP    WIND        PRES    VSBY  WAVE
                          AIR SEA DIR/SP/G                  HT/PER
                          (F)     (DEG/KT/KT) (MB)    (MI)  (FT/S)
WAUKEGAN HARBOR            40     140/ 22/ 26 1025.1F
HARRISON CRIB              41     150/ 19/ 26   N/A
BURNHAM HARBOR             45     130/ 17/ 22   N/A
CALUMET HARBOR             44     140/ 13/ 21 1025.7F
MICHIGAN CITY              43     140/ 16/ 22   N/A
$$

ILZ025>027-034>036-040-047-049-050-058-095>099-161900-
WEST-CENTRAL ILLINOIS

CITY           SKY/WX    TMP DP  RH WIND       PRES   REMARKS
QUINCY         FAIR      54  29  38 S21       30.10F
GALESBURG*     FAIR      53  31  43 SE20G31   30.11F
MACOMB*        FAIR      54  30  40 S25G33    30.14F
JACKSONVILLE*  FAIR      54  29  38 SE21G26   30.18F
PITTSFIELD*    FAIR      55  26  33 S25G31    30.14F
$$

ILZ028>032-037-038-041>044-048-051>054-059>061-161900-
CENTRAL ILLINOIS

CITY           SKY/WX    TMP DP  RH WIND       PRES   REMARKS
BLOOMINGTON    FAIR      50  28  42 S26G32    30.22F
DECATUR        FAIR      51  30  44 S21       30.24F
PEORIA         FAIR      53  28  38 S20G32    30.16F
6HR MIN TEMP:  36; 6HR MAX TEMP:  53;

LACON*         FAIR      51  30  44 S22G33    30.17F
LINCOLN*       FAIR      51  29  43 S18G28    30.22F
SPRINGFIELD    FAIR      54  28  36 SE24G31   30.21F
6HR MIN TEMP:  36; 6HR MAX TEMP:  54;

TAYLORVILLE    NOT AVBL
$$

ILZ033-039-045-046-055>057-062-063-161900-
EAST-CENTRAL ILLINOIS

CITY           SKY/WX    TMP DP  RH WIND       PRES   REMARKS
CHAMPAIGN      SUNNY     50  29  44 SE17G26   30.26F
RANTOUL*       SUNNY     49  28  44 SE18      30.27F
MATTOON        FAIR      49  28  44 SE14G23   30.26F
$$

ILZ079-100>102-161900-
SOUTHWEST ILLINOIS

CITY           SKY/WX    TMP DP  RH WIND       PRES   REMARKS
ALTON          MOSUNNY   52  25  35 SE22G29   30.21F
BELLEVILLE     FAIR      53  28  37 SE18G29   30.22F
CAHOKIA*       FAIR      52  30  43 S18G28    30.22F
SPARTA*        FAIR      50  28  43 SE16G22   30.24F
$$

ILZ064>066-069>071-074>076-080>082-084>086-088>090-092>094-161900-
SOUTH-CENTRAL ILLINOIS

CITY           SKY/WX    TMP DP  RH WIND       PRES   REMARKS
CARBONDALE     PTSUNNY   52  27  38 SE12      30.26F
6HR MIN TEMP:  35; 6HR MAX TEMP:  52;

MARION         PTSUNNY   54  28  37 SE12      30.27F
MT. VERNON     FAIR      52  27  37 SE13G20   30.28F
CENTRALIA*       N/A     49  26  40 SE13G21   30.25F
SALEM*         FAIR      50  29  44 SE12G20   30.27F
METROPOLIS*    FAIR      53  20  28 E5        30.27F
$$

ILZ067-068-072-073-078-083-087-091-161900-
SOUTHEAST ILLINOIS

CITY           SKY/WX    TMP DP  RH WIND       PRES   REMARKS
ROBINSON*      SUNNY     49  29  45 SE14      30.32F
$$

ABBREVIATIONS USED IN REMARKS
   TC - TEMPERATURE IN CELSIUS
  WCI - WIND CHILL INDEX
   HX - HEAT INDEX
  VSB - VISIBILITY
$$




USA.gov is the U.S. government's official web portal to all federal, state and local government web resources and services.